Latest Coastal Weather Observations for Truscott

IDW60701

Issued at 1:43 am WST Sunday 4 December 2016 (issued every 10 minutes, with the page automatically refreshed every 10 minutes)

About coastal observations | Map of coastal stations | Coastal observations for WA | Marine services | Other Formats
Station Details ID: 001020 Name: TRUSCOTT Lat: -14.09 Lon: 126.39 Height: 51.0 m
Data from the previous 72 hours. | See also: Recent months at Truscott
Date/Time
WST
Temp
°C
Wind Pressure Rain since
9am
mm
Weather Cloud Vis
km
Sea
Height
m
Swell
Dir  Spd
kts
Gust
kts
hPa Trend Height
m
Period
s
Dir
04/01:30am 27.0 E 3 5 1008.0 - 41.2 - - 10 - - - -
04/01:00am 26.9 ESE 3 - 1008.3 - 41.2 - - 10 - - - -
04/12:30am 27.0 CALM 0 - 1008.0 - 41.2 - - 10 - - - -
04/12:00am 27.5 CALM 0 - 1008.6 - 41.2 - - 10 - - - -
 
Date/Time
WST
Temp
°C
Wind Pressure Rain since
9am
mm
Weather Cloud Vis
km
Sea
Height
m
Swell
Dir  Spd
kts
Gust
kts
hPa Trend Height
m
Period
s
Dir
03/11:30pm 27.0 CALM 0 - 1009.0 - 41.2 - - 10 - - - -
03/11:00pm 27.6 NNE 3 - 1009.3 - 41.2 - - 10 - - - -
03/10:30pm 28.0 ENE 3 - 1010.0 - 41.2 - - 10 - - - -
03/10:00pm 27.8 E 3 - 1010.0 - 41.2 - - 10 - - - -
03/09:30pm 28.0 E 4 - 1010.0 - 41.2 - - 10 - - - -
03/09:00pm 28.0 ESE 4 - 1009.8 - 41.2 - - 10 - - - -
03/08:30pm 29.0 NNE 4 - 1009.0 - 41.2 - - 10 - - - -
03/08:00pm 28.5 NE 4 - 1009.4 - 41.2 - - 10 - - - -
03/07:30pm 29.0 NNE 3 - 1009.0 - 41.2 - - 10 - - - -
03/07:00pm 28.8 NNE 5 - 1009.3 - 41.2 - - 10 - - - -
03/06:30pm 29.0 NNE 3 - 1009.0 - 41.2 - - 10 - - - -
03/06:00pm 29.2 N 6 - 1008.8 - 41.2 - - 10 - - - -
03/05:30pm 30.0 N 5 - 1008.0 - 41.2 - - 10 - - - -
03/05:00pm 30.2 NNE 6 - 1007.9 - 41.2 - - 10 - - - -
03/04:30pm 30.0 N 7 - 1007.0 - 41.2 - Partly cloudy 10 - - - -
03/04:00pm 30.7 N 5 - 1007.2 - 41.2 - Partly cloudy 10 - - - -
03/03:30pm 31.0 E 3 - 1007.0 - 41.2 - - 10 - - - -
03/03:00pm 30.1 E 5 - 1007.2 - 41.2 Recent precip. Mostly clear 10 - - - -
03/02:30pm 29.0 E 5 - 1007.0 - 41.2 - Partly cloudy 10 - - - -
03/02:00pm 27.5 ESE 2 - 1006.8 - 41.0 - Partly cloudy 10 - - - -
03/01:58pm 27.0 SE 2 - 1007.0 - 41.0 - Partly cloudy 10 - - - -
03/01:36pm 28.0 NE 9 - 1008.0 - 39.0 - Partly cloudy 5 - - - -
03/01:30pm 29.0 ENE 9 - 1007.0 - 35.2 - Partly cloudy 10 - - - -
03/01:00pm 30.9 NNE 6 - 1008.1 - 35.2 - Partly cloudy 10 - - - -
03/12:30pm 30.0 NNE 5 - 1008.0 - 35.2 - Cloudy 10 - - - -
03/12:00pm 27.5 E 3 - 1008.8 - 35.2 Recent precip. Cloudy 10 - - - -
03/11:30am 26.0 NNE 3 - 1009.0 - 35.2 - Partly cloudy 10 - - - -
03/11:29am 26.0 NNE 3 - 1009.0 - 35.2 - Partly cloudy 10 - - - -
03/11:27am 26.0 N 3 - 1009.0 - 35.2 - Partly cloudy 10 - - - -
03/11:00am 25.4 N 7 - 1009.5 - 26.6 - Partly cloudy 0.8 - - - -
03/10:51am 25.0 ENE 19 - 1009.0 - 9.2 - Partly cloudy 2 - - - -
03/10:49am 26.0 N 15 25 1009.0 - 8.0 - Partly cloudy 2 - - - -
03/10:44am 28.0 NNW 10 - 1009.0 - 4.2 - Partly cloudy 5 - - - -
03/10:30am 33.0 SW 7 - 1009.0 - 0.0 - Partly cloudy 10 - - - -
03/10:00am 32.9 WSW 5 - 1009.4 - 0.0 - Partly cloudy 10 - - - -
03/09:30am 33.0 WSW 5 - 1009.0 - 0.0 - - 10 - - - -
03/09:00am 31.4 WSW 5 - 1009.8 - 4.6 - Mostly clear 10 - - - -
03/08:30am 31.0 WSW 4 - 1010.0 - 4.6 - Partly cloudy 10 - - - -
03/08:00am 31.0 S 4 - 1010.0 - 4.6 - - 10 - - - -
03/07:30am 30.0 S 3 - 1010.0 - 4.6 - - 10 - - - -
03/07:00am 30.1 S 2 - 1009.3 - 4.6 - - 10 - - - -
03/06:30am 29.0 SSE 3 - 1009.0 - 4.6 - - 10 - - - -
03/06:00am 28.0 SSE 1 - 1008.8 - 4.6 - - 10 - - - -
03/05:30am 26.0 CALM 0 - 1008.0 - 4.6 - - 10 - - - -
03/05:00am 26.0 CALM 0 - 1007.9 - 4.6 - - 10 - - - -
03/04:30am 26.0 S 3 - 1008.0 - 4.6 - - 10 - - - -
03/04:00am 25.8 SSE 5 - 1007.6 - 4.6 - - 10 - - - -
03/03:30am 26.0 CALM 0 - 1007.0 - 4.6 - - 10 - - - -
03/03:00am 26.0 S 3 - 1007.3 - 4.6 - - 10 - - - -
03/02:30am 26.0 S 3 - 1007.0 - 4.6 - - 10 - - - -
03/02:00am 25.6 CALM 0 - 1006.9 - 4.6 - - 10 - - - -
03/01:30am 26.0 ESE 3 - 1007.0 - 4.6 - - 10 - - - -
03/01:00am 25.8 ESE 3 - 1007.0 - 4.6 - - 10 - - - -
03/12:30am 26.0 CALM 0 - 1007.0 - 4.6 - - 10 - - - -
03/12:00am 25.9 SE 3 - 1007.4 - 4.6 - Cloudy 10 - - - -
 
Date/Time
WST
Temp
°C
Wind Pressure Rain since
9am
mm
Weather Cloud Vis
km
Sea
Height
m
Swell
Dir  Spd
kts
Gust
kts
hPa Trend Height
m
Period
s
Dir
02/11:30pm 26.0 ENE 5 - 1008.0 - 4.6 - - 10 - - - -
02/11:00pm 26.0 CALM 0 - 1008.2 - 4.6 - - 10 - - - -
02/10:30pm 26.0 ESE 3 - 1009.0 - 4.6 - - 10 - - - -
02/10:00pm 26.5 S 6 - 1008.7 - 4.6 - - 10 - - - -
02/09:30pm 26.0 SSE 4 - 1009.0 - 4.6 - - 10 - - - -
02/09:00pm 26.3 NW 4 - 1008.5 - 4.6 - Mostly cloudy 10 - - - -
02/08:30pm 26.0 CALM 0 - 1008.0 - 4.6 - - 10 - - - -
02/08:00pm 26.2 SW 5 - 1008.2 - 4.6 - - 10 - - - -
02/07:30pm 26.0 W 7 - 1008.0 - 4.6 - - 10 - - - -
02/07:00pm 25.9 WSW 5 - 1007.7 - 4.6 - Partly cloudy 10 - - - -
02/06:30pm 25.0 WSW 9 - 1007.0 - 4.4 - Partly cloudy 10 - - - -
02/06:17pm 26.0 WNW 8 - 1007.0 - 4.4 - Partly cloudy 10 - - - -
02/06:01pm 25.0 NNE 4 - 1008.0 - 3.8 - Partly cloudy 5 - - - -
02/06:00pm 24.7 NE 4 - 1008.0 - 3.6 Rain Cloudy 6 - - - -
02/05:52pm 25.0 SSW 4 - 1008.0 - 2.6 - Partly cloudy 10 - - - -
02/05:40pm 24.0 SE 11 - 1008.0 - 1.8 - Partly cloudy 5 - - - -
02/05:30pm 25.0 SE 11 24 1007.0 - 0.6 - Partly cloudy 10 - - - -
02/05:02pm 29.0 SSE 15 25 1007.0 - 0.0 - Partly cloudy 10 - - - -
02/05:00pm 31.8 N 5 - 1007.1 - 0.0 - Partly cloudy 10 - - - -
02/04:30pm 32.0 NNW 9 - 1006.0 - 0.0 - - 10 - - - -
02/04:00pm 32.0 NNW 11 - 1004.7 - 0.0 - - 10 - - - -
02/03:30pm 34.0 NNW 9 - 1005.0 - 0.0 - - 10 - - - -
02/03:00pm 34.4 N 9 - 1005.2 - 0.0 - - 10 - - - -
02/02:30pm 34.0 NNW 8 - 1005.0 - 0.0 - - 10 - - - -
02/02:00pm 34.1 NNW 8 - 1005.3 - 0.0 - - 10 - - - -
02/01:30pm 34.0 NW 7 - 1006.0 - 0.0 - - 10 - - - -
02/01:00pm 34.5 NNW 8 - 1006.0 - 0.0 - - 10 - - - -
02/12:30pm 35.0 NNW 8 - 1006.0 - 0.0 - - 10 - - - -
02/12:00pm 33.7 N 8 - 1006.7 - 0.0 - - 10 - - - -
02/11:30am 33.0 NNW 8 - 1007.0 - 0.0 - - 10 - - - -
02/11:00am 32.7 NNW 10 - 1007.2 - 0.0 - - 10 - - - -
02/10:30am 32.0 NNW 8 - 1008.0 - 0.0 - - 10 - - - -
02/10:00am 32.9 NNW 7 - 1008.1 - 0.0 - - 10 - - - -
02/09:30am 33.0 NNE 5 - 1009.0 - 0.0 - - 10 - - - -
02/09:00am 32.3 E 5 - 1008.8 - 4.6 - - 10 - - - -
02/08:30am 31.0 ENE 8 - 1009.0 - 4.6 - - 10 - - - -
02/08:00am 31.1 E 8 - 1009.5 - 4.6 - - 10 - - - -
02/07:30am 30.0 E 9 - 1010.0 - 4.6 - - 10 - - - -
02/07:00am 29.3 E 7 - 1009.7 - 4.6 - Partly cloudy 10 - - - -
02/06:30am 30.0 ESE 6 - 1009.0 - 4.6 - - 10 - - - -
02/06:00am 28.5 SE 5 - 1009.2 - 4.6 - Mostly clear 10 - - - -
02/05:30am 27.0 SSE 4 - 1009.0 - 4.6 - - 10 - - - -
02/05:00am 26.8 SE 5 - 1008.5 - 4.6 - - 10 - - - -
02/04:30am 26.0 ESE 5 - 1008.0 - 4.6 - - 10 - - - -
02/04:00am 26.4 SE 3 - 1007.0 - 4.6 - - 10 - - - -
02/03:30am 27.0 ESE 4 - 1006.0 - 4.6 - - 10 - - - -
02/03:00am 26.3 S 4 - 1005.7 - 4.6 - - 10 - - - -
02/02:30am 26.0 CALM 0 - 1006.0 - 4.6 - - 10 - - - -
02/02:00am 26.3 CALM 0 - 1005.6 - 4.6 - - 10 - - - -
02/01:30am 26.0 CALM 0 - 1006.0 - 4.6 - - 10 - - - -
02/01:00am 26.7 CALM 0 - 1005.8 - 4.6 - - 10 - - - -
02/12:30am 28.0 CALM 0 - 1006.0 - 4.6 - - 10 - - - -
02/12:00am 27.4 NW 2 - 1005.7 - 4.6 - Partly cloudy 10 - - - -
 
Date/Time
WST
Temp
°C
Wind Pressure Rain since
9am
mm
Weather Cloud Vis
km
Sea
Height
m
Swell
Dir  Spd
kts
Gust
kts
hPa Trend Height
m
Period
s
Dir
01/11:30pm 27.0 CALM 0 - 1006.0 - 4.6 - - 10 - - - -
01/11:00pm 28.0 SE 3 - 1006.7 - 4.6 - - 10 - - - -
01/10:30pm 29.0 NE 4 - 1007.0 - 4.6 - - 10 - - - -
01/10:00pm 29.4 WSW 4 - 1006.5 - 4.6 - - 10 - - - -
01/09:30pm 29.0 W 7 - 1006.0 - 4.6 - - 10 - - - -
01/09:00pm 28.1 SW 9 - 1006.5 - 4.6 - Cloudy 10 - - - -
01/08:30pm 27.0 SW 11 - 1006.0 - 4.6 - - 10 - - - -
01/08:00pm 27.5 SSW 13 - 1006.0 - 4.6 - Partly cloudy 10 - - - -
01/07:30pm 27.0 WSW 6 - 1006.0 - 4.6 - Partly cloudy 10 - - - -
01/07:00pm 26.4 W 10 - 1005.6 - 4.4 - Partly cloudy 10 - - - -
01/06:30pm 26.0 SW 9 - 1006.0 - 4.2 - Partly cloudy 10 - - - -
01/06:00pm 25.2 S 7 - 1006.2 - 3.8 Rain Cloudy 10 - - - -
01/05:35pm 24.0 SSE 11 - 1007.0 - 3.6 - Partly cloudy 10 - - - -
01/05:30pm 24.0 SSE 11 - 1006.0 - 3.6 - Partly cloudy 9 - - - -
01/05:22pm 25.0 E 11 - 1006.0 - 3.2 - Partly cloudy 5 - - - -
01/05:00pm 28.0 ENE 16 29 1006.2 - 0.0 - Partly cloudy 10 - - - -
01/04:58pm 28.0 ENE 16 26 1006.0 - 0.0 - Partly cloudy 10 - - - -
01/04:55pm 28.0 E 15 - 1006.0 - 0.0 - Partly cloudy 10 - - - -
01/04:30pm 33.0 W 11 - 1004.0 - 0.0 - - 10 - - - -
01/04:00pm 34.5 W 10 - 1003.9 - 0.0 - - 10 - - - -
01/03:30pm 35.0 WNW 8 - 1004.0 - 0.0 - - 10 - - - -
01/03:00pm 35.0 WNW 11 - 1004.0 - 0.0 - - 10 - - - -
01/02:30pm 36.0 WNW 8 - 1004.0 - 0.0 - - 10 - - - -
01/02:00pm 35.6 W 10 - 1004.5 - 0.0 - - 10 - - - -
01/01:30pm 36.0 WNW 11 - 1005.0 - 0.0 - - 10 - - - -
01/01:00pm 36.1 W 9 - 1005.4 - 0.0 - - 10 - - - -
01/12:30pm 36.0 WNW 10 - 1006.0 - 0.0 - Partly cloudy 10 - - - -
01/12:00pm 36.5 W 8 - 1006.1 - 0.0 - - 10 - - - -
01/11:30am 36.0 W 10 - 1006.0 - 0.0 - - 10 - - - -
01/11:00am 35.0 WNW 11 - 1006.9 - 0.0 - - 10 - - - -
01/10:30am 35.0 WNW 10 - 1007.0 - 0.0 - - 10 - - - -
01/10:00am 34.9 W 7 - 1007.3 - 0.0 - - 10 - - - -
01/09:30am 35.0 SW 8 - 1007.0 - 0.0 - - 10 - - - -
01/09:00am 34.1 WSW 9 - 1007.5 - 0.2 Recent precip. Partly cloudy 10 - - - -
01/08:30am 33.0 SW 10 - 1008.0 - 0.2 - - 10 - - - -
01/08:00am 32.0 SW 10 - 1008.5 - 0.0 - - 10 - - - -
01/07:30am 31.0 WSW 11 - 1008.0 - 0.0 - - 10 - - - -
01/07:00am 30.7 W 8 - 1008.2 - 0.0 - - 10 - - - -
01/06:30am 31.0 WSW 6 - 1008.0 - 0.0 - - 10 - - - -
01/06:00am 30.5 WSW 6 - 1007.8 - 0.0 - Mostly cloudy 10 - - - -
01/05:30am 30.0 WSW 5 - 1007.0 - 0.0 - - 10 - - - -
01/05:00am 30.1 SW 5 - 1007.1 - 0.0 - - 10 - - - -
01/04:30am 30.0 SW 6 - 1007.0 - 0.0 - - 10 - - - -
01/04:00am 30.0 WSW 6 - 1006.2 - 0.0 - - 10 - - - -
01/03:30am 30.0 WSW 6 - 1006.0 - 0.0 - - 10 - - - -
01/03:00am 30.2 WSW 6 - 1005.6 - 0.0 - Cloudy 10 - - - -
01/02:30am 30.0 WSW 8 - 1005.0 - 0.0 - - 10 - - - -
01/02:00am 30.3 WSW 8 - 1005.5 - 0.0 - - 10 - - - -

Other Formats:

Comma delimited format used in spreadsheet applications
http://www.bom.gov.au/fwo/IDW60701/IDW60701.95101.axf

JavaScript Object Notation format (JSON) in row-major order
http://www.bom.gov.au/fwo/IDW60701/IDW60701.95101.json